User: anonymous   Login
Location: Newark
(46.7458°N, 0.9467°W)
Time: 00:36:52
(UTC+00:00)
Language:

LightSail 2 - Orbit

View from above orbital plane
View from above orbital plane
View from above satellite
View from above satellite

Ground track
Ground track

The orbit data is extracted from the following two-line orbital elements,

1 44420U 19036AC  19292.89052586  .00004855  00000-0  10962-2 0  9991
2 44420  24.0058 191.3580 0010271   9.8403 350.2288 14.53350502 15100
Epoch (UTC): 19 October 2019 21:22:21
Eccentricity: 0.0010271
inclination: 24.0058°
perigee height: 707 km
apogee height: 722 km
right ascension of ascending node: 191.3580°
argument of perigee: 9.8403°
revolutions per day: 14.53350502
mean anomaly at epoch: 350.2288°
orbit number at epoch: 1510

The dashed part of the orbit path shows where the satellite is in the earth's shadow,  

DLR